Weather History for KNID - October, 2010

Change the Weather History Date:

Saturday, October 30, 2010

  Actual Average Record
Temperature  
Mean Temperature 57 °F -  
Max Temperature 68 °F 69 °F 84 °F (2008)
Min Temperature 46 °F 43 °F 37 °F (2013)
Degree Days  
Heating Degree Days 8    
Growing Degree Days 7 (Base 50)    
Moisture  
Dew Point 37 °F    
Average Humidity 48    
Maximum Humidity 77    
Minimum Humidity 28    
Precipitation  
Precipitation 0.00 in - - ()
Sea Level Pressure  
Sea Level Pressure 29.93 in    
Wind  
Wind Speed 13 mph (South)    
Max Wind Speed 29 mph    
Max Gust Speed 38 mph    
Averages and records for this station are not official NWS values.
T = Trace of Precipitation, MM = Missing Value Source: NWS Daily Summary

Daily Weather History Graph

Daily Weather History Graph

Search for Another Location

Airport or City:

Trip Planner

Search our weather history database for the weather conditions in past years. The results will help you decide how hot, cold, wet, or windy it might be!

Date:

Astronomy

Oct. 30, 2010 Rise Set
Actual Time 7:10 AM PDT 5:57 PM PDT
Civil Twilight 6:44 AM PDT 6:23 PM PDT
Nautical Twilight 6:14 AM PDT 6:53 PM PDT
Astronomical Twilight 5:44 AM PDT 7:23 PM PDT
Moon No Moon Rise 1:48 PM PDT (10/30)
Length of Visible Light 11h 39m
Length of Day
10h 46m
Waning Gibbous, 47% of the Moon is Illuminated
Oct 30
Waning Gibbous
Nov 5
New
Nov 13
First Quarter
Nov 21
Full
Nov 28
Last Quarter

Hourly Weather History & Observations

Time (PDT) Temp. Dew Point Humidity Pressure Visibility Wind Dir Wind Speed Gust Speed Precip Events Conditions
12:56 AM 55.9 °F 37.9 °F 51% 29.88 in - SSW 8.1 mph - N/A   Partly Cloudy
1:56 AM 52.0 °F 37.9 °F 59% 29.85 in - East 3.5 mph - N/A   Mostly Cloudy
2:56 AM 60.1 °F 34.0 °F 38% 29.82 in - South 11.5 mph - N/A   Overcast
3:56 AM 60.1 °F 30.9 °F 33% 29.82 in - South 16.1 mph - N/A   Overcast
4:56 AM 57.9 °F 35.1 °F 42% 29.87 in - SSW 20.7 mph 38.0 mph N/A   Overcast
5:56 AM 53.1 °F 41.0 °F 64% 29.88 in - South 13.8 mph 27.6 mph 0.00 in   Mostly Cloudy
6:56 AM 48.9 °F 42.1 °F 77% 29.90 in - South 16.1 mph - N/A   Clear
7:56 AM 50.0 °F 41.0 °F 71% 29.93 in - SSW 17.3 mph 23.0 mph N/A   Clear
8:56 AM 55.0 °F 41.0 °F 59% 29.93 in - South 19.6 mph - N/A   Clear
9:56 AM 59.0 °F 39.9 °F 49% 29.91 in - SSW 24.2 mph - N/A   Clear
10:56 AM 62.1 °F 39.9 °F 44% 29.92 in - SSW 21.9 mph 29.9 mph N/A   Clear
11:56 AM 64.9 °F 37.9 °F 37% 29.93 in - SSW 25.3 mph 33.4 mph N/A   Scattered Clouds
12:56 PM 66.9 °F 36.0 °F 32% 29.92 in - SSW 19.6 mph 29.9 mph N/A   Clear
1:56 PM 66.9 °F 37.0 °F 33% 29.90 in - SSW 23.0 mph 34.5 mph N/A   Clear
2:56 PM 66.0 °F 36.0 °F 33% 29.89 in - SW 28.8 mph 35.7 mph N/A   Clear
3:56 PM 66.0 °F 36.0 °F 33% 29.90 in - South 17.3 mph 27.6 mph N/A   Clear
4:56 PM 66.9 °F 33.1 °F 28% 29.91 in - East 3.5 mph - N/A   Clear
5:56 PM 62.1 °F 35.1 °F 37% 29.94 in - SSW 9.2 mph - N/A   Clear
6:56 PM 59.0 °F 36.0 °F 42% 29.97 in - South 11.5 mph - N/A   Partly Cloudy
7:56 PM 55.9 °F 37.0 °F 49% 30.01 in - South 6.9 mph - N/A   Partly Cloudy
8:56 PM 54.0 °F 37.0 °F 53% 30.01 in - South 4.6 mph - N/A   Partly Cloudy
9:56 PM 52.0 °F 37.0 °F 57% 30.02 in - South 6.9 mph - N/A   Partly Cloudy
10:56 PM 48.9 °F 37.0 °F 64% 30.05 in - SSW 6.9 mph - N/A   Clear
11:56 PM 46.9 °F 36.0 °F 66% 30.07 in - NW 4.6 mph - N/A   Partly Cloudy